Location: Newark
(47.0000°N, 7.6833°E)
Time: 20:41:51
(UTC+00:00)

XW-2B - Visible Passes

Search period start: 16 October 2019 00:00
Search period end: 26 October 2019 00:00
Orbit: 508 x 528 km, 97.5° (Epoch: 16 October)

Date Brightness Start Highest point End Pass type
(mag) Time Alt. Az. Time Alt. Az. Time Alt. Az.
16 Oct ? 17:52:02 10° WSW 17:53:49 13° W 17:55:36 10° WNW visible
17 Oct ? 17:36:58 10° SW 17:39:38 18° W 17:42:18 10° NW visible
18 Oct ? 05:04:38 10° NNE 05:08:06 34° E 05:11:31 10° SSE visible
18 Oct ? 17:22:17 10° SSW 17:25:28 25° W 17:28:39 10° NW visible
19 Oct ? 04:50:51 10° NE 04:53:57 24° E 04:57:02 10° SSE visible
19 Oct ? 17:07:49 10° SSW 17:11:20 36° W 17:14:50 10° NNW visible
20 Oct ? 04:37:14 10° NE 04:39:47 17° E 04:42:19 10° SE visible
21 Oct ? 04:24:01 10° ENE 04:25:35 12° E 04:27:08 10° ESE visible
23 Oct ? 17:47:21 10° SW 17:49:26 14° W 17:51:30 10° WNW visible
24 Oct ? 05:14:13 10° NNE 05:17:50 45° E 05:21:25 10° S visible
24 Oct ? 17:32:25 10° SW 17:35:14 20° W 17:38:04 10° NW visible
25 Oct ? 05:00:20 10° NNE 05:03:42 31° E 05:07:03 10° SSE visible
25 Oct ? 17:17:48 10° SSW 17:21:04 28° W 17:24:22 10° NW visible
